Location: Treviso
(45.6669°N, 12.2430°E)
Time: 20:43:58
(UTC+01:00)

X-37B - Visible Passes

Search period start: 29 November 2020 00:00
Search period end: 09 December 2020 00:00
Orbit: 384 x 389 km, 45.0° (Epoch: 12 November)

Date Brightness Start Highest point End Pass type
(mag) Time Alt. Az. Time Alt. Az. Time Alt. Az.
29 Nov 2.7 17:11:42 10° SSW 17:13:56 18° SSE 17:16:11 10° ESE visible
29 Nov 2.3 18:47:03 10° WSW 18:48:55 31° SW 18:48:55 31° SW visible
30 Nov 1.3 17:48:39 10° SW 17:51:40 41° SSE 17:52:59 26° ESE visible
30 Nov 4.1 19:24:58 10° W 19:25:15 12° W 19:25:15 12° W visible
01 Dec 0.8 18:26:25 10° WSW 18:29:18 66° SW 18:29:18 66° SW visible
02 Dec 0.9 17:27:55 10° WSW 17:31:02 58° SSE 17:33:20 17° E visible
02 Dec 3.3 19:04:25 10° W 19:05:36 21° W 19:05:36 21° W visible
03 Dec 0.5 18:05:51 10° W 18:09:01 81° S 18:09:39 54° E visible
04 Dec 0.7 17:07:17 10° WSW 17:10:27 73° S 17:13:38 10° E visible
04 Dec 2.0 18:43:52 10° W 18:46:00 38° W 18:46:00 38° W visible
05 Dec 0.6 17:45:17 10° W 17:48:28 79° S 17:50:07 26° E visible
05 Dec 4.0 19:21:58 10° W 19:22:24 13° W 19:22:24 13° W visible
06 Dec 1.1 18:23:19 10° W 18:26:26 52° SSW 18:26:35 51° S visible
07 Dec 0.8 17:24:44 10° W 17:27:54 68° S 17:30:52 11° ESE visible
07 Dec 3.2 19:01:36 10° W 19:03:10 20° WSW 19:03:10 20° WSW visible
08 Dec 1.9 18:02:50 10° W 18:05:48 36° SSW 18:07:36 19° SE visible
